Date,TemperatureHighF,TemperatureAvgF,TemperatureLowF,DewpointHighF,DewpointAvgF,DewpointLowF,HumidityHigh,HumidityAvg,HumidityLow,PressureMaxIn,PressureMinIn,WindSpeedMaxMPH,WindSpeedAvgMPH,GustSpeedMaxMPH,PrecipitationSumIn
2013-1-1,50.8,46.8,43.0,47.7,42.2,33.2,93,85,64,30.02,29.87,6,1,6,1.19
2013-1-2,46.4,39.5,37.1,44.8,35.8,33.4,94,86,80,30.09,29.91,10,2,10,0.00
2013-1-3,43.9,36.2,26.3,33.7,30.0,22.3,89,79,52,30.28,30.05,8,1,8,0.00
2013-1-4,46.6,33.1,23.2,28.6,23.8,20.3,90,71,43,30.34,30.24,8,1,8,0.01
2013-1-5,51.1,36.5,23.4,34.3,27.1,19.6,88,70,46,30.31,30.15,7,1,7,0.01
2013-1-6,48.4,40.4,34.4,40.6,35.2,29.7,89,82,66,30.21,30.08,5,1,5,0.04
2013-1-7,53.6,38.0,26.3,37.2,29.5,23.2,91,73,45,30.30,30.19,11,2,12,0.00
2013-1-8,58.0,47.1,36.4,45.0,36.9,29.5,82,68,55,30.30,30.19,11,3,12,0.00
2013-1-9,58.1,51.8,49.3,54.3,47.7,43.2,92,86,78,30.34,30.23,6,1,6,0.12
2013-1-10,65.3,56.0,49.9,58.3,51.6,47.3,92,86,74,30.34,30.05,17,3,17,0.01
2013-1-11,65.9,62.9,60.7,62.8,60.0,56.3,93,90,83,30.08,30.00,22,4,22,0.22
2013-1-12,73.1,65.9,61.9,66.8,61.7,58.1,95,87,75,30.05,29.92,10,3,10,0.08
2013-1-13,69.1,64.3,60.7,62.4,59.6,57.1,93,85,76,29.98,29.87,14,5,14,1.45
2013-1-14,60.7,44.1,38.5,58.7,42.1,36.6,94,93,89,30.15,29.95,10,3,10,1.10
2013-1-15,43.4,41.6,39.2,41.6,39.9,37.4,95,94,93,30.06,29.89,8,1,8,0.00
2013-1-16,71.3,46.8,42.5,59.9,44.2,40.2,95,91,63,29.94,29.84,9,1,9,1.03
2013-1-17,42.8,39.4,33.1,41.2,36.7,28.8,94,90,79,30.20,29.58,15,5,16,0.62
2013-1-18,49.3,35.6,26.6,36.3,29.4,24.4,93,79,52,30.41,30.20,8,1,8,0.01
2013-1-19,54.4,36.2,24.7,37.3,28.9,22.1,92,77,48,30.31,30.10,8,2,10,0.00
2013-1-20,59.8,41.5,27.7,42.0,32.3,24.9,92,72,46,30.10,30.00,7,1,7,0.00
2013-1-21,50.8,36.7,26.3,35.8,24.3,16.7,90,65,34,30.10,29.98,9,2,10,0.01
2013-1-22,39.6,31.2,24.3,17.9,13.3,10.0,61,48,34,30.25,30.09,10,2,10,0.00
2013-1-23,51.5,38.4,28.6,31.6,21.5,12.0,77,51,39,30.25,30.05,8,1,8,0.00
2013-1-24,48.2,39.5,27.0,41.0,23.3,8.0,79,54,28,30.25,30.04,15,3,15,0.00
2013-1-25,36.4,33.9,29.2,32.2,22.9,13.6,86,66,41,30.24,29.99,17,4,17,0.09
2013-1-26,49.5,38.8,29.3,34.9,31.3,24.8,89,76,49,30.19,30.05,7,2,7,0.00
2013-1-27,54.0,41.4,28.1,38.4,32.1,24.1,90,71,52,30.30,30.18,13,4,13,0.00
2013-1-28,56.9,48.6,43.7,47.4,39.5,31.8,88,71,60,30.25,30.12,14,4,14,0.00
2013-1-29,68.4,56.2,41.6,60.8,51.4,38.9,91,84,74,30.13,29.77,14,3,14,0.00
2013-1-30,66.8,57.6,41.0,63.8,54.2,33.0,92,88,73,29.77,29.45,17,5,17,2.72
2013-1-31,48.4,38.9,31.3,34.1,26.9,23.2,77,63,43,30.00,29.71,13,3,13,0.00
2013-2-1,42.7,31.7,23.2,32.8,17.4,11.5,72,56,38,30.29,29.96,12,3,13,0.00
2013-2-2,36.2,28.3,19.1,31.1,22.8,13.9,89,80,67,30.24,29.98,8,1,8,0.08
2013-2-3,54.0,38.7,26.3,41.7,29.1,23.0,92,72,38,30.02,29.89,10,2,10,0.02
2013-2-4,51.5,36.8,24.5,34.7,27.9,20.7,88,71,51,30.02,29.87,7,1,7,0.00
2013-2-5,64.4,47.6,39.4,47.2,39.2,30.8,89,74,45,29.93,29.82,9,1,9,0.01
2013-2-6,64.1,45.7,30.4,45.2,35.0,27.6,91,70,34,30.07,29.93,6,1,6,0.01
2013-2-7,52.7,45.6,38.3,47.1,40.7,32.4,91,83,75,30.01,29.83,5,0,5,0.11
2013-2-8,55.6,46.5,36.7,48.8,40.5,29.9,92,81,53,30.12,29.80,11,2,13,0.07
2013-2-9,58.0,42.5,32.0,35.9,30.2,26.9,82,64,37,30.20,30.08,11,2,14,0.00
2013-2-10,57.2,50.4,40.0,49.4,37.8,28.8,91,64,37,30.12,29.89,25,8,25,1.04
2013-2-11,58.9,51.4,40.7,54.8,47.0,37.1,92,85,70,30.02,29.89,13,2,13,0.11
2013-2-12,51.1,43.2,35.1,40.0,35.5,29.9,92,76,47,30.03,29.72,13,2,13,0.20
2013-2-13,49.3,43.9,39.8,46.8,39.7,34.7,92,85,74,29.88,29.58,10,2,10,0.06
2013-2-14,57.2,43.7,34.0,40.8,34.6,29.6,86,71,50,29.97,29.88,8,1,8,0.00
2013-2-15,63.2,44.0,29.7,45.1,34.4,26.7,91,71,46,29.99,29.87,10,2,10,0.00
2013-2-16,41.4,34.0,24.1,28.5,20.7,13.1,74,60,37,30.05,29.89,12,3,12,0.00
2013-2-17,46.1,30.5,15.7,21.1,15.5,10.4,81,57,32,30.16,30.04,9,1,9,0.00
2013-2-18,60.8,42.0,24.1,35.3,25.8,16.9,79,55,34,30.19,29.89,19,5,19,0.00
2013-2-19,117.4,46.1,36.4,51.5,27.7,11.9,86,53,12,30.08,29.84,18,4,25,0.01
2013-2-20,46.1,34.7,22.0,22.0,14.4,11.2,75,45,27,30.12,30.02,10,2,10,0.00
2013-2-21,58.5,41.6,27.9,40.5,22.7,13.3,87,50,22,30.09,29.79,13,2,13,0.72
2013-2-22,49.7,45.9,43.7,42.7,41.3,40.2,89,84,76,29.99,29.88,24,5,24,0.58
2013-2-23,59.2,48.1,38.9,51.1,43.9,36.5,91,86,73,29.92,29.73,5,1,5,0.43
2013-2-24,58.5,43.0,31.0,37.5,31.7,26.6,93,68,35,29.95,29.81,10,2,10,0.01
2013-2-25,56.7,44.3,32.8,40.9,33.7,27.5,82,67,46,29.91,29.65,15,3,15,0.00
2013-2-26,51.8,44.8,40.5,46.8,40.0,35.6,90,83,70,29.66,29.40,16,4,17,0.68
2013-2-27,58.0,45.0,39.6,40.4,35.3,32.5,83,70,45,29.79,29.65,10,2,10,0.00
2013-3-1,42.7,38.2,33.8,31.5,29.6,27.3,84,71,62,29.91,29.85,7,2,7,0.00
2013-3-2,40.7,34.9,32.0,30.9,27.9,24.0,88,76,59,29.95,29.84,8,2,8,0.01
2013-3-3,40.0,32.0,23.6,24.9,20.7,16.4,76,64,45,29.98,29.92,9,3,9,0.00
2013-3-4,57.1,39.8,21.6,31.6,25.1,16.3,84,59,31,30.06,29.85,8,2,8,0.00
2013-3-5,65.0,49.9,35.8,52.6,40.0,26.7,86,69,48,29.91,29.53,14,4,19,0.48
2013-3-6,42.5,35.7,31.7,28.9,24.6,19.6,81,64,53,30.10,29.80,14,5,14,0.02
2013-3-7,49.9,38.4,32.6,32.0,27.4,25.0,76,65,47,30.19,30.08,14,4,14,0.00
2013-3-8,57.2,41.2,29.0,30.0,24.1,16.4,82,55,22,30.23,30.12,13,3,13,0.00
2013-3-9,62.8,47.9,31.1,36.0,30.1,22.9,77,53,34,30.18,30.03,12,3,12,0.00
2013-3-10,71.3,60.5,51.5,40.9,34.5,30.2,50,38,25,30.03,29.87,17,9,17,0.00
2013-3-11,60.3,55.1,42.1,52.4,47.9,37.6,89,77,50,29.89,29.63,20,6,22,0.95
2013-3-12,58.1,45.1,38.2,37.7,32.5,27.4,87,63,37,29.99,29.79,10,3,10,0.01
2013-3-13,51.7,40.1,29.5,33.9,25.0,18.6,82,57,33,30.19,29.98,12,3,13,0.00
2013-3-14,52.9,38.7,26.3,32.7,21.2,17.1,73,52,27,30.26,30.10,10,3,10,0.01
2013-3-15,74.9,52.2,30.4,47.8,37.8,26.5,87,62,33,30.13,29.84,10,2,10,0.00
2013-3-16,78.1,64.4,54.0,51.0,44.6,40.8,64,50,33,29.85,29.73,15,3,15,0.00
2013-3-17,74.7,61.0,51.5,55.6,47.3,41.8,77,61,45,29.86,29.76,10,2,10,0.00
2013-3-18,62.8,55.5,49.1,55.4,50.9,45.0,91,85,75,29.80,29.65,17,4,17,0.84
2013-3-19,63.9,51.3,36.2,49.1,33.9,17.7,91,56,28,30.00,29.77,10,3,11,0.02
2013-3-20,59.4,46.1,33.3,31.7,24.3,18.0,73,45,22,30.02,29.79,12,2,13,0.00
2013-3-21,47.2,36.2,25.9,27.6,16.5,8.8,73,46,28,29.91,29.80,11,3,12,0.00
2013-3-22,50.8,39.8,28.6,33.3,24.2,18.3,70,54,38,29.93,29.85,5,1,6,0.00
2013-3-23,52.7,45.9,40.0,45.9,40.2,32.8,87,81,69,29.89,29.62,6,1,6,0.29
2013-3-24,61.6,51.9,41.4,55.7,46.4,31.2,92,82,65,29.72,29.32,12,4,14,2.08
2013-3-25,41.4,36.9,32.0,31.3,25.1,22.8,73,62,51,29.95,29.56,13,4,13,0.01
2013-3-26,41.8,35.7,31.3,29.9,25.8,22.7,80,68,54,30.17,29.93,10,3,10,0.00
2013-3-27,54.4,39.8,25.4,30.9,25.5,20.7,85,59,34,30.23,30.12,9,2,9,0.00
2013-3-28,60.5,42.6,26.1,33.0,27.3,22.0,85,59,32,30.23,30.11,9,2,9,0.00
2013-3-29,59.9,45.4,31.3,41.1,33.2,26.7,85,64,37,30.20,30.07,9,1,9,0.00
2013-3-30,72.5,54.4,40.9,51.7,45.0,36.9,88,73,42,30.09,29.88,9,2,9,0.34
2013-3-31,69.3,59.0,54.2,60.3,54.4,50.9,91,85,66,29.88,29.73,8,2,9,0.79
2013-4-1,71.5,57.6,42.8,53.6,45.6,35.9,93,68,35,29.94,29.76,11,2,11,0.00
2013-4-2,61.0,49.7,39.2,37.1,29.2,23.1,69,47,26,30.10,29.94,10,3,12,0.00
2013-4-3,59.8,50.3,41.8,36.5,27.2,22.3,70,42,30,30.09,29.99,11,3,11,0.01
2013-4-4,45.7,44.5,43.4,42.3,40.3,36.4,90,85,70,30.03,29.84,9,1,10,0.64
2013-4-5,65.3,51.6,42.1,44.4,39.6,34.8,92,67,35,29.97,29.84,16,3,16,0.02
2013-4-6,75.2,55.7,34.6,49.4,39.2,30.7,87,59,33,30.06,29.93,13,3,13,0.00
2013-4-7,78.8,62.9,47.5,51.9,44.7,37.3,71,53,37,30.05,29.91,11,3,11,0.00
2013-4-8,80.1,66.0,53.1,58.7,51.1,44.3,79,60,42,29.99,29.90,12,2,12,0.00
2013-4-9,83.9,67.7,50.0,62.5,54.0,45.9,87,64,44,30.07,29.91,12,2,12,0.00
2013-4-10,86.0,70.9,54.9,63.9,56.6,50.1,85,63,41,29.99,29.76,9,2,9,0.00
2013-4-11,80.3,69.2,59.9,63.2,58.5,52.6,91,70,54,29.79,29.47,16,4,17,1.67
2013-4-12,68.0,58.9,47.5,59.9,46.7,37.6,91,67,36,29.84,29.51,9,2,15,0.06
2013-4-13,74.9,58.3,40.1,45.9,40.4,36.5,89,56,29,29.95,29.83,8,1,8,0.00
2013-4-14,63.5,52.9,42.5,52.9,45.3,38.2,88,76,50,29.92,29.79,12,2,12,0.04
2013-4-15,78.7,67.1,55.8,61.5,56.4,51.3,88,70,52,29.98,29.79,11,4,11,0.00
2013-4-16,85.1,71.2,62.8,67.4,61.1,56.2,84,71,53,30.11,29.98,14,4,14,0.00
2013-4-17,89.3,72.0,63.9,69.8,62.9,58.9,91,74,51,30.08,29.92,14,3,14,1.11
2013-4-18,83.3,71.2,60.8,64.4,59.2,56.9,89,68,44,29.94,29.70,15,5,15,0.00
2013-4-19,71.6,58.4,43.7,63.0,50.0,34.6,88,74,57,29.97,29.58,17,4,17,1.61
2013-4-20,63.7,48.7,31.9,39.2,32.9,28.4,88,58,29,30.13,29.96,10,2,11,0.00
2013-4-21,71.6,54.7,36.4,44.8,37.5,31.7,84,56,29,30.23,30.07,11,2,11,0.00
2013-4-22,73.8,60.6,47.9,48.4,42.3,37.0,71,52,33,30.18,30.00,11,3,11,0.00
2013-4-23,77.4,62.3,45.0,52.5,44.3,36.0,73,53,40,30.09,29.91,11,3,11,0.00
2013-4-24,73.3,61.4,48.2,60.9,52.8,42.9,86,74,61,30.08,29.90,13,3,13,0.14
2013-4-25,67.5,52.0,38.2,42.9,37.3,32.0,88,61,29,30.21,30.08,11,2,11,0.00
2013-4-26,77.4,58.0,37.8,49.4,40.3,33.1,88,56,29,30.24,30.09,13,2,13,0.33
2013-4-27,68.0,56.8,52.2,56.5,51.3,48.2,92,83,64,30.25,29.94,15,3,15,0.59
2013-4-28,58.9,57.5,55.8,56.3,54.4,52.4,92,89,84,29.99,29.81,17,5,17,2.13
2013-4-29,77.6,63.4,52.6,62.6,55.8,50.2,93,78,54,29.91,29.81,8,2,8,0.00
2013-4-30,81.5,63.9,48.1,64.8,54.3,45.6,92,74,47,29.96,29.83,9,1,10,0.00
2013-5-1,79.7,68.6,59.2,61.5,57.3,52.4,87,68,48,30.05,29.94,16,3,16,0.00
2013-5-2,77.4,65.7,53.1,62.0,55.0,48.1,86,69,53,30.05,29.97,15,5,16,0.00
2013-5-3,68.0,63.2,60.5,56.4,54.0,52.5,78,72,62,29.99,29.82,19,6,19,0.01
2013-5-4,61.6,54.9,51.8,52.6,50.1,47.7,91,84,67,29.83,29.74,21,4,21,2.57
2013-5-5,67.0,53.5,47.2,56.3,48.5,44.9,92,84,59,29.76,29.61,9,2,9,1.52
2013-5-6,60.3,52.3,47.2,52.7,48.1,44.7,91,86,70,29.77,29.65,7,2,7,0.21
2013-5-7,73.4,59.6,49.0,56.3,51.0,46.4,93,75,47,29.87,29.74,8,1,8,0.10
2013-5-8,80.5,64.2,48.2,62.6,54.9,45.8,92,74,51,29.94,29.83,6,1,6,0.00
2013-5-9,85.7,69.3,53.1,65.9,57.4,50.5,91,69,40,29.99,29.90,6,1,6,0.00
2013-5-10,80.3,67.4,55.8,65.2,57.9,52.6,90,73,52,29.95,29.82,8,2,8,0.00
2013-5-11,80.6,66.9,56.3,66.6,59.8,52.0,90,79,57,29.87,29.77,9,1,9,0.24
2013-5-12,68.0,57.6,44.6,52.3,41.6,33.0,92,59,30,30.01,29.86,12,2,12,0.00
2013-5-13,69.8,54.3,36.7,48.4,38.1,33.0,87,58,31,30.12,30.00,8,1,9,0.00
2013-5-14,81.0,61.8,40.1,58.8,48.3,36.3,87,64,43,30.11,29.94,10,2,10,0.00
2013-5-15,88.2,70.6,54.0,63.7,55.8,49.9,87,63,35,30.04,29.88,7,1,7,0.00
2013-5-16,87.1,69.5,57.2,67.0,58.6,52.2,87,70,45,29.96,29.85,7,1,7,0.00
2013-5-17,85.1,69.3,58.9,67.9,60.8,54.3,88,76,52,29.97,29.88,10,1,10,0.19
2013-5-18,78.3,69.6,64.3,70.1,65.0,60.4,91,85,75,29.94,29.87,10,4,10,0.81
2013-5-19,71.8,66.1,58.7,69.0,63.7,56.3,93,92,90,30.00,29.82,11,2,11,1.74
2013-5-20,86.8,69.8,54.0,73.4,63.0,52.3,95,80,60,29.98,29.87,6,1,6,0.00
2013-5-21,91.8,75.3,60.1,75.2,66.2,57.8,93,75,50,29.92,29.76,7,1,7,0.00
2013-5-22,89.6,75.8,66.8,71.9,66.1,62.6,88,73,50,29.84,29.73,11,2,11,0.02
2013-5-23,85.3,72.7,59.6,70.8,60.7,54.6,92,69,44,29.89,29.78,7,1,9,0.00
2013-5-24,71.8,63.7,51.3,59.2,49.2,42.9,88,62,38,30.12,29.89,14,2,14,0.00
2013-5-25,79.6,61.8,44.5,52.8,46.2,41.1,90,61,30,30.20,30.04,8,1,8,0.00
2013-5-26,83.5,67.1,47.2,59.6,52.7,43.8,89,63,39,30.14,30.03,7,1,7,0.00
2013-5-27,89.1,71.2,52.2,65.6,58.1,49.1,89,66,40,30.09,29.96,10,1,10,0.00
2013-5-28,88.7,74.3,61.0,68.9,60.6,54.9,88,65,43,30.06,29.96,8,2,8,0.00
2013-5-29,89.1,75.8,63.5,69.1,61.9,54.7,82,63,42,30.08,29.97,10,3,10,0.00
2013-5-30,86.6,76.1,67.3,68.8,64.1,60.0,80,67,52,30.10,29.97,12,4,12,0.00
2013-5-31,89.5,77.6,67.3,70.1,65.0,61.7,84,66,49,30.05,29.91,13,4,14,0.00
2013-6-1,88.4,76.6,68.8,73.8,67.1,61.1,90,73,56,29.95,29.84,11,3,11,0.35
2013-6-2,87.5,76.0,67.1,76.3,68.7,63.5,92,79,58,29.87,29.76,6,1,6,0.49
2013-6-3,87.3,73.5,63.2,70.2,64.1,60.6,93,75,50,29.87,29.76,6,1,8,0.00
2013-6-4,88.7,73.1,57.6,67.7,61.4,54.7,92,69,45,29.91,29.83,5,1,5,0.00
2013-6-5,87.5,71.7,62.8,73.6,65.3,59.1,90,81,58,29.90,29.78,13,2,13,0.54
2013-6-6,87.3,72.1,65.9,72.5,66.8,63.2,93,84,60,29.81,29.63,8,1,8,0.01
2013-6-7,89.1,73.5,64.8,72.6,67.3,61.9,93,82,53,29.76,29.59,6,1,6,0.28
2013-6-8,86.6,73.9,64.8,72.2,66.6,61.9,94,79,58,29.94,29.74,6,1,6,0.01
2013-6-9,87.3,72.6,64.1,74.6,67.7,61.6,93,85,64,29.96,29.84,10,2,10,0.60
2013-6-10,87.3,75.3,68.9,73.4,68.0,64.3,92,79,60,29.88,29.77,9,2,9,0.12
2013-6-11,92.2,79.5,68.9,77.2,70.4,65.2,92,75,56,29.92,29.84,6,1,6,0.16
2013-6-12,94.1,80.4,68.4,79.8,72.6,65.6,92,78,58,29.96,29.84,5,1,5,0.00
2013-6-13,92.5,79.4,68.8,78.2,71.6,65.1,92,78,56,29.85,29.63,11,2,11,0.55
2013-6-14,83.7,72.6,59.8,66.0,60.2,56.8,91,67,43,29.89,29.76,11,2,12,0.00
2013-6-15,89.1,74.6,58.7,68.5,62.6,55.8,91,68,48,30.00,29.89,8,2,8,0.00
2013-6-16,93.1,76.2,61.6,72.5,66.0,58.7,90,73,49,30.02,29.87,8,2,8,0.20
2013-6-17,87.1,74.7,67.7,75.8,69.0,64.9,91,83,68,29.93,29.79,7,2,7,0.04
2013-6-18,83.3,73.7,66.1,76.0,68.9,63.4,92,85,72,29.82,29.73,8,2,8,0.45
2013-6-19,86.0,73.7,61.6,69.9,64.3,59.6,94,75,46,29.95,29.81,9,1,9,0.00
2013-6-20,89.8,76.5,64.4,75.3,66.4,61.8,92,73,52,30.07,29.95,8,2,8,0.00
2013-6-21,90.5,76.0,65.7,73.9,66.4,61.8,91,74,50,30.13,30.02,6,1,6,0.00
2013-6-22,89.5,77.3,63.0,73.9,65.3,60.4,92,69,44,30.10,29.96,7,1,7,0.00
2013-6-23,90.9,76.9,63.7,73.4,67.4,61.0,92,74,54,30.07,29.96,8,1,8,0.00
2013-6-24,92.9,78.3,65.9,75.2,69.7,63.2,92,76,54,30.11,29.97,7,2,7,0.00
2013-6-25,92.3,78.2,67.1,76.3,70.2,64.4,91,78,56,30.04,29.89,7,1,7,0.00
2013-6-26,92.9,80.2,68.8,77.4,72.1,66.3,92,77,58,29.95,29.79,11,2,11,0.00
2013-6-27,90.4,79.9,73.4,78.3,72.7,69.3,89,79,63,29.86,29.69,7,1,7,0.38
2013-6-28,94.9,79.6,66.6,78.2,69.9,62.3,93,74,50,29.74,29.55,10,1,10,0.01
2013-6-29,90.7,77.3,65.3,74.4,64.7,60.5,92,68,39,29.62,29.55,6,1,6,0.03
2013-6-30,91.3,77.3,61.9,71.8,64.1,58.9,90,66,41,29.69,29.58,5,1,5,0.01
2013-7-1,86.8,74.2,63.7,73.5,66.1,60.5,91,77,55,29.80,29.66,9,2,9,0.27
2013-7-2,88.6,76.2,65.0,74.1,68.4,62.4,93,78,57,29.93,29.78,10,2,10,2.08
2013-7-3,76.3,71.3,68.0,72.9,67.8,65.2,92,89,83,30.02,29.92,9,2,9,0.35
2013-7-4,78.8,71.1,67.3,73.3,67.7,64.9,94,89,78,30.02,29.94,11,3,11,1.85
2013-7-5,76.3,71.8,69.5,72.5,68.7,66.7,92,90,87,30.06,29.97,10,3,10,0.35
2013-7-6,78.8,71.1,68.6,74.0,68.4,66.6,94,91,84,30.02,29.97,9,2,9,2.15
2013-7-7,87.5,75.0,68.4,77.0,70.8,66.6,95,87,67,30.04,29.96,10,2,11,2.37
2013-7-8,94.0,77.4,68.4,78.2,71.6,66.6,94,83,55,30.07,29.96,6,1,6,0.01
2013-7-9,93.2,80.1,69.8,78.8,73.3,67.4,94,81,58,30.05,29.93,6,1,6,0.01
2013-7-10,92.7,79.0,68.8,80.7,73.0,65.6,94,82,63,29.97,29.81,15,1,15,0.42
2013-7-11,92.0,77.6,68.8,77.6,70.8,66.0,93,81,58,29.88,29.75,5,1,5,0.37
2013-7-12,87.3,76.7,68.0,73.0,68.2,62.9,93,77,51,29.85,29.77,10,2,10,0.01
2013-7-13,86.9,74.3,62.8,73.3,66.8,60.1,93,78,62,29.94,29.82,11,2,11,0.00
2013-7-14,87.5,76.8,69.1,77.4,70.3,65.1,92,81,67,30.07,29.92,12,2,12,0.40
2013-7-15,90.0,76.8,72.0,74.5,69.8,67.6,89,80,54,30.16,30.06,12,4,12,0.01
2013-7-16,93.6,79.3,67.9,77.6,71.6,65.6,93,79,51,30.19,30.11,6,1,8,0.01
2013-7-17,94.7,80.4,69.1,79.2,72.9,66.9,93,79,51,30.17,30.02,10,1,10,0.06
2013-7-18,93.8,80.1,68.4,78.8,71.5,65.6,93,77,54,30.10,29.93,6,1,8,0.02
2013-7-19,95.0,82.2,70.4,78.3,73.0,68.0,93,75,51,30.00,29.85,8,1,8,0.01
2013-7-20,96.3,79.9,70.4,77.9,71.9,67.5,92,78,50,29.92,29.80,8,1,8,0.04
2013-7-21,92.7,77.2,68.6,77.8,71.3,66.2,93,83,59,29.91,29.82,6,1,7,0.13
2013-7-22,88.9,77.0,69.1,77.6,70.6,66.7,93,82,64,29.88,29.73,7,2,7,0.00
2013-7-23,85.5,76.4,69.8,76.3,70.7,66.2,91,83,68,29.84,29.71,10,1,10,0.02
2013-7-24,90.2,76.3,67.7,76.3,70.6,65.4,93,83,60,29.78,29.71,5,1,5,0.09
2013-7-25,88.7,75.6,63.7,72.4,66.6,61.6,94,75,48,29.90,29.76,9,1,9,0.02
2013-7-26,91.1,75.3,61.6,75.5,67.1,59.0,92,77,56,29.94,29.85,6,1,6,0.00
2013-7-27,88.4,76.2,68.2,75.3,69.4,65.4,92,80,60,29.87,29.76,9,1,9,0.00
2013-7-28,88.9,75.7,65.9,73.0,67.6,62.3,93,78,54,29.94,29.80,6,1,6,0.00
2013-7-29,82.3,69.9,59.4,64.2,60.0,55.6,92,73,45,30.05,29.93,8,1,8,0.00
2013-7-30,90.4,73.8,58.1,70.8,63.8,55.5,92,73,44,30.10,29.97,7,1,7,0.00
2013-7-31,81.7,72.8,67.9,74.4,68.7,65.0,92,87,75,30.02,29.84,10,2,10,1.35
2013-8-1,88.4,77.0,68.8,76.9,69.5,65.1,94,79,54,29.87,29.81,6,1,6,0.00
2013-8-2,90.7,75.8,62.8,73.6,66.8,60.7,93,76,47,29.91,29.83,6,1,6,0.00
2013-8-3,90.4,76.0,64.3,75.2,69.1,61.7,93,80,58,29.94,29.87,4,0,4,0.00
2013-8-4,89.8,77.4,67.7,74.9,69.3,63.4,93,78,55,29.94,29.87,9,1,9,0.00
2013-8-5,90.9,75.9,63.9,71.7,65.3,60.3,89,72,43,29.95,29.85,4,1,4,0.00
2013-8-6,91.1,77.6,69.8,76.6,69.9,66.1,91,78,58,29.89,29.82,7,1,7,0.27
2013-8-7,86.8,74.4,70.6,78.1,70.5,66.2,93,88,71,29.92,29.83,6,1,10,0.71
2013-8-8,91.1,77.9,70.7,79.5,72.6,68.0,95,84,67,29.93,29.85,9,2,11,0.40
2013-8-9,93.2,80.1,68.6,80.5,73.2,66.8,94,81,59,29.95,29.87,8,1,10,0.01
2013-8-10,90.4,77.9,71.1,78.7,72.8,68.5,94,85,65,30.01,29.94,10,1,11,0.58
2013-8-11,92.5,77.7,69.5,79.7,72.4,67.7,95,84,65,30.03,29.94,6,1,6,0.00
2013-8-12,92.2,78.3,68.9,79.8,73.0,67.1,94,85,63,29.99,29.85,5,1,5,1.16
2013-8-13,90.0,77.7,70.6,77.4,71.5,67.7,94,82,61,29.90,29.76,6,1,6,0.10
2013-8-14,81.7,72.5,64.3,70.2,65.2,59.1,92,79,57,29.90,29.80,8,2,12,0.00
2013-8-15,83.9,71.3,62.5,68.6,61.9,57.6,87,73,55,29.94,29.89,9,2,9,0.00
2013-8-16,74.3,68.6,63.0,66.1,61.9,57.7,89,79,71,29.98,29.90,6,1,7,0.05
2013-8-17,75.4,67.9,64.3,66.9,63.2,60.8,91,85,70,30.00,29.93,6,1,6,0.09
2013-8-18,80.1,71.0,65.3,72.4,66.7,62.6,93,87,76,30.05,29.95,7,1,7,0.37
2013-8-19,86.2,74.4,67.3,76.1,69.5,65.5,94,85,67,30.01,29.91,5,1,5,0.72
2013-8-20,88.6,76.2,66.6,75.8,70.3,64.8,94,83,61,30.04,29.95,8,1,8,0.01
2013-8-21,89.6,76.4,69.8,77.0,71.2,67.6,93,85,63,30.09,29.97,8,1,8,0.00
2013-8-22,89.1,76.1,70.0,78.7,71.6,67.6,94,86,68,30.05,29.92,5,1,5,0.76
2013-8-23,90.2,77.0,67.0,77.2,70.0,65.2,94,81,56,29.97,29.86,7,1,7,0.01
2013-8-24,89.6,76.1,65.0,75.3,68.5,62.7,94,78,59,30.10,29.93,8,2,8,0.00
2013-8-25,86.9,75.8,63.2,69.0,64.9,58.6,87,70,49,30.22,30.10,9,2,9,0.00
2013-8-26,88.2,72.5,60.7,70.7,63.6,58.1,92,75,48,30.19,30.02,6,1,6,0.00
2013-8-27,88.2,73.8,60.8,71.6,65.4,58.5,93,77,51,30.04,29.91,8,1,8,0.00
2013-8-28,90.4,76.6,64.4,75.9,69.0,62.1,93,79,54,29.94,29.87,7,1,7,0.00
2013-8-29,94.3,79.5,66.8,78.4,72.0,64.6,93,79,55,29.92,29.82,5,0,5,0.00
2013-8-30,93.1,76.9,70.6,79.8,72.0,67.7,93,85,60,29.90,29.81,7,1,8,0.03
2013-8-31,93.8,80.9,70.6,79.6,73.3,68.0,94,79,57,29.85,29.72,8,1,8,0.01
2013-9-1,90.7,75.5,70.9,79.7,71.1,66.3,93,86,62,29.83,29.73,10,1,10,0.61
2013-9-2,87.8,76.5,71.1,77.0,71.5,68.2,94,85,66,29.86,29.74,6,1,6,0.06
2013-9-3,90.4,77.4,68.8,77.0,70.4,65.7,94,80,55,29.88,29.75,6,1,7,0.01
2013-9-4,89.3,74.1,61.7,71.7,65.8,59.8,93,77,50,29.98,29.87,7,1,7,0.00
2013-9-5,88.4,72.6,60.3,71.6,64.6,58.3,93,78,51,30.02,29.96,9,1,9,0.00
2013-9-6,90.2,73.1,59.8,73.4,65.2,57.6,93,78,52,30.04,29.93,7,1,7,0.00
2013-9-7,90.4,74.9,61.9,74.0,66.7,59.6,93,77,52,30.00,29.88,6,1,6,0.00
2013-9-8,91.3,75.8,62.6,75.3,68.5,60.3,93,80,55,29.90,29.82,6,0,6,0.00
2013-9-9,91.8,77.8,68.8,75.4,70.0,66.2,93,79,53,29.98,29.87,8,1,9,0.00
2013-9-10,91.4,77.4,66.4,74.9,69.0,64.2,93,77,51,30.09,29.98,8,2,8,0.00
2013-9-11,92.0,77.0,64.6,74.7,68.4,62.3,93,77,51,30.10,29.97,6,1,6,0.00
2013-9-12,93.2,77.4,65.9,75.6,68.7,63.2,93,77,49,29.98,29.79,7,1,7,0.00
2013-9-13,84.8,72.2,61.4,69.1,60.8,52.1,92,70,41,29.82,29.74,9,2,12,0.00
2013-9-14,81.4,64.7,50.6,61.5,54.4,46.8,89,71,44,29.93,29.81,8,1,8,0.00
2013-9-15,85.1,68.4,54.9,69.4,60.3,52.3,92,77,50,30.02,29.93,10,1,10,0.00
2013-9-16,86.4,71.2,58.0,70.8,61.1,55.4,93,74,40,30.03,29.95,9,1,9,0.00
2013-9-17,83.7,72.0,61.7,67.1,62.1,58.0,89,72,52,30.07,29.99,11,3,14,0.00
2013-9-18,81.4,71.2,64.8,63.8,59.7,56.3,83,68,53,30.09,29.99,9,3,9,0.00
2013-9-19,87.7,71.2,58.1,69.3,62.0,55.3,92,75,52,30.06,29.92,6,1,6,0.00
2013-9-20,87.8,72.8,60.5,69.6,63.2,57.9,92,74,47,29.94,29.75,9,1,10,0.00
2013-9-21,72.9,68.4,59.0,68.9,64.2,56.4,92,86,77,29.78,29.62,9,2,9,2.21
2013-9-22,77.2,63.2,53.6,60.8,55.6,51.7,94,78,47,29.77,29.67,9,2,10,0.01
2013-9-23,83.9,65.0,50.8,64.8,56.6,48.2,92,77,48,29.87,29.76,9,1,9,0.00
2013-9-24,70.7,67.0,61.0,65.3,61.5,57.2,88,83,78,29.89,29.75,10,3,10,0.03
2013-9-25,72.7,66.8,64.4,67.0,63.2,61.6,92,88,80,29.76,29.69,9,2,9,0.76
2013-9-26,81.2,68.5,60.1,67.7,62.4,57.2,93,82,54,29.88,29.74,7,1,7,0.00
2013-9-27,81.7,66.4,55.8,66.1,58.7,53.5,93,78,49,30.01,29.88,6,1,6,0.01
2013-9-28,81.4,66.8,56.5,64.4,58.5,53.3,92,76,51,30.08,29.96,8,2,10,0.00
2013-9-29,79.2,64.9,53.8,61.3,56.8,50.9,91,77,51,30.01,29.89,8,1,8,0.00
2013-9-30,80.3,64.7,53.1,62.2,56.6,50.8,92,77,48,29.95,29.85,9,1,9,0.00
2013-10-1,82.1,66.3,55.3,68.0,60.2,52.6,92,82,58,30.02,29.91,6,1,6,0.00
2013-10-2,86.4,70.0,57.6,71.8,62.8,55.2,93,80,52,30.04,29.92,5,0,5,0.00
2013-10-3,85.7,72.5,62.3,69.6,64.0,58.7,92,76,51,30.00,29.91,10,1,10,0.00
2013-10-4,85.7,69.2,57.6,69.6,62.2,55.0,93,80,54,30.03,29.94,5,0,6,0.00
2013-10-5,87.1,70.9,58.7,72.4,63.5,56.3,93,79,53,29.99,29.87,10,1,10,0.05
2013-10-6,83.0,69.6,60.1,72.4,64.8,57.8,93,85,66,29.88,29.69,10,2,10,0.24
2013-10-7,70.2,60.6,54.4,63.5,52.9,48.5,92,77,49,29.89,29.72,8,2,9,0.50
2013-10-8,76.0,61.7,50.0,60.7,53.0,45.6,87,74,54,29.99,29.87,8,2,8,0.00
2013-10-9,79.0,64.9,56.0,63.4,57.3,52.7,90,78,55,30.05,29.96,5,1,6,0.00
2013-10-10,80.1,63.4,51.8,65.3,56.1,49.5,93,79,51,30.01,29.89,9,1,9,0.00
2013-10-11,79.2,61.9,47.5,62.2,53.2,45.4,93,76,42,29.95,29.85,8,1,8,0.00
2013-10-12,82.3,63.0,48.2,64.4,54.0,45.8,92,75,41,29.98,29.88,7,1,7,0.00
2013-10-13,80.8,63.9,49.1,63.2,55.3,46.6,92,76,49,30.07,29.97,7,1,8,0.00
2013-10-14,83.0,66.2,53.5,67.2,59.0,51.1,93,79,53,30.08,29.95,9,1,9,0.00
2013-10-15,72.4,65.8,59.6,62.4,59.1,56.7,90,80,66,30.02,29.91,10,2,10,0.00
2013-10-16,74.7,64.3,56.7,64.4,59.0,53.4,91,83,68,29.92,29.81,5,1,5,0.00
2013-10-17,73.4,65.5,56.5,68.7,61.0,51.0,92,85,71,29.86,29.75,7,1,7,0.11
2013-10-18,69.7,55.7,46.4,52.9,47.9,44.3,94,77,49,29.92,29.81,10,1,10,0.00
2013-10-19,70.6,56.9,48.2,59.1,51.0,44.9,92,82,58,29.89,29.77,6,1,6,0.00
2013-10-20,67.3,49.5,37.4,47.9,41.0,34.9,93,75,37,29.95,29.87,8,1,8,0.01
2013-10-21,73.1,51.8,34.4,56.2,43.4,31.7,91,76,43,29.98,29.86,7,1,7,0.00
2013-10-22,74.2,58.8,47.5,57.2,50.1,43.6,90,75,47,29.88,29.72,6,1,6,0.00
2013-10-23,58.0,47.9,35.8,46.3,39.9,31.3,91,75,46,29.95,29.70,8,1,9,0.00
2013-10-24,63.0,47.4,33.7,46.0,38.4,29.8,89,73,48,30.11,29.93,6,1,6,0.00
2013-10-25,53.5,40.4,29.5,36.8,28.4,23.8,82,64,38,30.28,30.11,12,2,12,0.00
2013-10-26,62.3,41.8,25.4,39.4,31.0,22.1,88,68,38,30.19,29.99,9,1,9,0.00
2013-10-27,64.6,53.8,41.4,52.2,46.0,34.4,86,75,62,30.01,29.95,6,1,6,0.00
2013-10-28,63.9,55.9,49.0,58.8,52.2,46.2,92,87,79,30.12,29.97,5,0,5,0.03
2013-10-29,75.6,59.6,49.3,61.4,53.8,47.1,93,82,59,30.18,30.07,8,1,8,0.00
2013-10-30,79.9,63.9,53.6,63.4,56.3,51.2,93,78,49,30.14,29.99,7,1,7,0.00
2013-10-31,73.8,63.9,58.1,63.9,58.5,54.3,90,83,70,30.00,29.62,15,4,15,0.08
2013-11-1,70.9,61.0,48.2,64.1,54.6,43.5,91,81,48,29.70,29.58,16,2,16,0.24
2013-11-2,67.7,52.2,40.7,52.6,41.9,35.8,92,71,36,29.95,29.69,8,1,9,0.00
2013-11-3,60.7,46.2,35.5,43.8,37.3,32.3,91,73,45,30.14,29.94,9,1,10,0.00
2013-11-4,65.2,49.3,34.0,43.6,37.1,30.8,91,66,42,30.25,30.14,14,4,14,0.00
2013-11-5,68.2,54.5,41.2,45.2,39.4,33.2,76,58,40,30.29,30.15,10,2,10,0.00
2013-11-6,73.6,62.7,49.7,59.7,53.5,38.0,84,72,60,30.15,29.93,14,3,14,0.00
2013-11-7,64.1,53.7,40.5,57.2,44.0,31.1,90,71,46,30.11,29.88,11,3,12,0.33
2013-11-8,57.1,42.8,30.6,34.2,27.7,23.2,83,59,28,30.22,30.10,13,2,13,0.00
2013-11-9,58.0,43.1,28.8,41.0,33.4,25.1,88,70,48,30.18,30.07,10,1,10,0.00
2013-11-10,68.2,52.2,40.1,46.6,38.9,32.6,88,64,35,30.16,30.07,10,1,10,0.00
2013-11-11,67.0,48.0,30.8,39.7,32.7,24.8,82,58,33,30.17,30.01,8,1,8,0.00
2013-11-12,53.3,41.4,30.2,42.2,29.7,15.1,85,64,43,30.35,29.99,16,3,16,0.00
2013-11-13,46.6,33.5,24.5,20.2,17.1,15.1,70,53,30,30.46,30.30,15,2,15,0.00
2013-11-14,58.3,35.9,19.1,31.7,20.9,14.4,83,59,28,30.32,30.12,8,1,8,0.00
2013-11-15,54.4,43.6,29.9,45.0,36.1,21.2,88,75,61,30.13,29.95,9,1,9,0.13
2013-11-16,63.7,54.0,45.4,57.4,49.8,42.0,90,86,79,30.06,29.95,11,2,11,0.00
2013-11-17,66.8,62.6,60.1,65.0,59.2,55.2,94,89,83,29.96,29.73,16,5,16,0.12
2013-11-18,67.0,58.9,47.3,64.8,44.5,32.0,94,62,32,29.98,29.76,9,2,10,0.02
2013-11-19,55.3,46.4,37.4,33.9,28.8,26.2,65,51,34,30.05,29.95,14,4,14,0.00
2013-11-20,59.2,45.2,28.6,36.0,31.0,24.1,86,60,38,30.14,30.01,11,3,11,0.00
2013-11-21,63.7,55.4,49.1,50.3,44.6,34.4,82,67,54,30.20,30.11,12,4,12,0.00
2013-11-22,63.4,56.4,53.1,56.9,52.5,48.8,92,87,78,30.17,30.04,7,1,8,0.00
2013-11-23,58.4,48.2,35.8,54.2,39.9,21.2,91,74,53,30.19,30.02,12,3,12,0.02
2013-11-24,38.9,31.2,24.3,22.0,14.1,8.2,66,50,32,30.37,30.18,14,4,14,0.00
2013-11-25,45.5,35.3,23.0,32.4,19.9,11.2,85,56,31,30.29,30.03,10,2,10,0.32
2013-11-26,42.8,38.2,34.0,40.7,35.4,31.1,92,89,84,30.03,29.60,9,2,9,3.08
2013-11-27,38.3,32.4,23.6,35.4,24.2,15.8,89,72,57,30.13,29.63,13,4,13,0.00
2013-11-28,46.1,29.2,17.6,27.8,19.3,12.7,85,68,43,30.30,30.12,8,1,8,0.00
2013-11-29,52.7,34.0,20.0,30.5,22.8,16.1,87,67,34,30.39,30.28,8,1,8,0.00
2013-11-30,55.1,37.7,25.2,33.9,26.6,21.3,87,67,40,30.36,30.15,9,2,9,0.01
2013-12-1,58.7,41.9,26.6,40.8,32.4,22.2,85,70,50,30.15,29.86,5,0,5,0.00
2013-12-2,50.2,47.2,43.9,47.7,43.4,38.6,92,87,76,29.86,29.66,6,1,6,0.16
2013-12-3,56.2,52.6,48.8,53.4,50.1,46.4,93,91,89,29.74,29.67,9,2,9,0.02
2013-12-4,71.6,62.1,55.1,64.1,58.1,52.5,93,87,73,29.85,29.73,10,3,10,0.00
2013-12-5,74.0,66.5,63.0,68.3,63.4,60.3,93,90,81,29.90,29.78,9,3,9,0.12
2013-12-6,74.3,61.4,40.1,68.7,58.3,37.5,93,90,74,30.00,29.75,9,3,16,1.33
2013-12-7,40.7,39.1,37.4,37.8,35.6,34.1,92,87,82,30.20,30.00,13,4,14,0.00
2013-12-9,55.4,49.6,42.8,50.6,46.4,40.1,94,89,82,30.01,29.86,6,1,6,0.49
2013-12-10,42.8,37.9,26.3,40.1,32.6,23.1,93,82,57,30.20,29.83,10,2,10,0.53
2013-12-11,52.0,33.8,22.0,37.3,27.4,19.3,92,79,51,30.29,30.18,5,0,5,0.00
2013-12-12,41.4,31.6,23.8,27.2,21.9,17.3,88,69,39,30.35,30.23,8,1,8,0.00
2013-12-13,50.8,34.2,19.8,33.9,25.1,16.2,88,71,42,30.25,29.98,6,0,6,0.01
2013-12-14,51.7,48.6,38.5,48.7,42.9,30.6,91,82,53,30.02,29.66,16,3,16,0.95
2013-12-15,46.4,37.8,34.6,42.9,32.6,29.2,88,81,76,30.06,29.74,8,2,8,0.00
2013-12-16,41.2,35.3,32.2,32.9,29.8,28.1,85,81,72,30.05,30.03,2,0,2,0.00
2013-12-17,61.6,44.2,29.3,43.7,34.2,26.8,91,70,45,30.08,29.89,8,2,8,0.00
2013-12-18,50.0,36.8,26.6,29.3,24.5,21.1,83,63,37,30.20,30.08,8,1,8,0.00
2013-12-19,61.2,40.9,25.6,38.9,27.5,21.1,86,62,34,30.15,29.99,14,1,14,0.00
2013-12-20,62.6,53.8,41.0,51.8,40.2,28.6,79,60,50,30.03,29.91,11,4,12,0.00
2013-12-21,68.2,62.8,57.8,64.2,58.7,51.5,92,87,79,29.92,29.70,15,7,18,0.26
2013-12-22,68.4,58.6,53.6,65.1,56.0,51.7,93,91,82,29.93,29.67,14,3,14,2.01
2013-12-23,53.8,44.2,30.6,51.7,39.4,26.0,93,83,74,30.18,29.88,12,2,12,0.13
2013-12-24,37.8,30.4,24.1,26.6,22.2,16.4,89,72,51,30.31,30.18,10,2,10,0.00
2013-12-25,46.4,30.5,17.8,29.5,21.2,13.7,86,70,48,30.29,30.15,9,1,9,0.00
2013-12-26,50.6,34.5,23.4,34.2,25.9,19.8,88,72,48,30.23,30.12,5,1,6,0.00
2013-12-27,52.9,34.7,22.7,37.0,26.4,19.4,89,74,44,30.31,30.17,7,0,7,0.00
2013-12-28,39.4,34.7,27.5,36.0,30.9,23.2,91,86,79,30.23,29.81,5,0,5,1.24
2013-12-29,51.3,42.1,35.8,45.5,38.7,33.0,92,88,79,29.91,29.73,5,1,5,0.47
2013-12-30,42.1,39.2,37.1,38.6,35.5,32.2,93,86,77,30.08,29.88,7,1,8,0.00
2013-12-31,41.9,33.9,27.5,33.9,28.2,23.8,92,81,58,30.27,30.05,14,1,14,0.01
2014-1-1,50.2,36.7,24.8,39.0,30.1,22.1,91,78,57,30.18,29.93,10,2,11,0.00
2014-1-2,47.7,39.0,22.5,45.3,33.8,13.5,91,81,68,30.05,29.63,12,4,15,0.23